Latest Coastal Weather Observations for Marion Reef

IDQ60701

Issued at 12:52 am EST Thursday 11 August 2022 (issued every 10 minutes, with the page automatically refreshed every 10 minutes)

About coastal observations | Map of coastal stations | Coastal observations for QLD | Marine services | Other Formats
Station Details ID: 200704 Name: MARION REEF Lat: -19.10 Lon: 152.39 Height: 2.0 m
Data from the previous 72 hours. | See also: Recent months for locations in Queensland
Date/Time
EST
Wind Sea
Height
m
Swell Vis
km
Cloud Weather Temp
°C
Press
MSL
hPa
Rain since
9am
mm
Dir  Spd
kts
Gust
kts
Height
m
Period
s
Dir
11/12:30am SE 21 24 - - - - - - - 22.5 1019.1 -
11/12:00am SSE 22 28 - - - - - - - 22.3 1019.3 -
 
Date/Time
EST
Wind Sea
Height
m
Swell Vis
km
Cloud Weather Temp
°C
Press
MSL
hPa
Rain since
9am
mm
Dir  Spd
kts
Gust
kts
Height
m
Period
s
Dir
10/11:30pm SSE 23 27 - - - - - - - 22.2 1019.4 -
10/11:00pm SSE 23 28 - - - - - - - 22.4 1019.4 -
10/10:30pm SSE 22 26 - - - - - - - 22.4 1019.5 -
10/10:00pm SE 23 28 - - - - - - - 22.1 1019.5 -
10/09:30pm SE 21 25 - - - - - - - 22.4 1019.5 -
10/09:00pm ESE 20 24 - - - - - - - 22.3 1019.6 -
10/08:30pm SE 21 25 - - - - - - - 22.4 1019.5 -
10/08:00pm ESE 21 23 - - - - - - - 22.5 1019.4 -
10/07:30pm SE 21 24 - - - - - - - 22.2 1019.3 -
10/07:00pm SE 22 26 - - - - - - - 22.1 1019.1 -
10/06:30pm SE 22 26 - - - - - - - 22.2 1018.8 -
10/06:00pm SE 22 26 - - - - - - - 22.2 1018.7 -
10/05:30pm SE 23 27 - - - - - - - 22.1 1018.6 -
10/05:00pm SE 23 28 - - - - - - - 22.2 1018.2 -
10/04:30pm SE 22 27 - - - - - - - 22.3 1018.1 -
10/04:00pm SE 22 28 - - - - - - - 22.3 1017.9 -
10/03:30pm SE 23 26 - - - - - - - 22.3 1017.7 -
10/03:00pm SSE 23 27 - - - - - - - 22.2 1017.5 -
10/02:30pm SSE 23 29 - - - - - - - 22.1 1017.6 -
10/02:00pm SSE 24 28 - - - - - - - 22.4 1017.7 -
10/01:30pm SSE 23 28 - - - - - - - 22.3 1017.9 -
10/01:00pm SE 21 25 - - - - - - - 22.4 1018.3 -
10/12:30pm SSE 21 26 - - - - - - - 22.4 1018.4 -
10/12:00pm SE 21 25 - - - - - - - 22.3 1018.6 -
10/11:30am SE 20 24 - - - - - - - 22.6 1019.1 -
10/11:00am SE 22 27 - - - - - - - 22.4 1019.3 -
10/10:30am SE 22 25 - - - - - - - 22.5 1019.5 -
10/10:00am SSE 21 26 - - - - - - - 22.3 1019.6 -
10/09:30am SE 21 25 - - - - - - - 22.4 1019.5 -
10/09:00am SE 20 24 - - - - - - - 22.2 1019.5 -
10/08:30am SE 22 25 - - - - - - - 22.2 1019.2 -
10/08:00am SE 22 25 - - - - - - - 22.4 1019.1 -
10/07:30am SE 22 25 - - - - - - - 22.2 1018.9 -
10/07:00am SSE 21 24 - - - - - - - 22.3 1018.6 -
10/06:30am SE 21 25 - - - - - - - 22.1 1018.2 -
10/06:00am SSE 21 25 - - - - - - - 22.2 1017.8 -
10/05:30am SSE 20 25 - - - - - - - 22.1 1017.4 -
10/05:00am SSE 20 24 - - - - - - - 22.2 1016.9 -
10/04:30am SSE 20 23 - - - - - - - 21.8 1016.7 -
10/04:00am SSE 22 25 - - - - - - - 21.9 1016.4 -
10/03:30am SSE 22 26 - - - - - - - 21.9 1016.5 -
10/03:00am SSE 20 25 - - - - - - - 22.1 1016.8 -
10/02:30am SSE 20 23 - - - - - - - 22.0 1017.1 -
10/02:00am SSE 20 23 - - - - - - - 22.0 1017.0 -
10/01:30am SSE 20 24 - - - - - - - 22.0 1017.3 -
10/01:00am SSE 19 23 - - - - - - - 22.1 1017.4 -
10/12:30am SSE 19 22 - - - - - - - 22.0 1017.4 -
10/12:00am SSE 19 23 - - - - - - - 22.1 1017.6 -
 
Date/Time
EST
Wind Sea
Height
m
Swell Vis
km
Cloud Weather Temp
°C
Press
MSL
hPa
Rain since
9am
mm
Dir  Spd
kts
Gust
kts
Height
m
Period
s
Dir
09/11:30pm SSE 20 23 - - - - - - - 22.2 1017.8 -
09/11:00pm SSE 20 25 - - - - - - - 22.1 1018.1 -
09/10:30pm SSE 20 25 - - - - - - - 22.1 1018.2 -
09/10:00pm SSE 20 25 - - - - - - - 22.1 1018.3 -
09/09:30pm SSE 21 25 - - - - - - - 22.1 1018.3 -
09/09:00pm SSE 21 24 - - - - - - - 22.3 1018.1 -
09/08:30pm SSE 20 25 - - - - - - - 22.1 1018.1 -
09/08:00pm SSE 20 23 - - - - - - - 22.2 1017.7 -
09/07:30pm SSE 21 24 - - - - - - - 22.2 1017.5 -
09/07:00pm SSE 21 25 - - - - - - - 22.0 1017.1 -
09/06:30pm SSE 21 25 - - - - - - - 22.1 1016.6 -
09/06:00pm SSE 22 26 - - - - - - - 22.1 1016.2 -
09/05:30pm SSE 21 25 - - - - - - - 22.0 1015.7 -
09/05:00pm SSE 19 24 - - - - - - - 21.8 1015.5 -
09/04:30pm SSE 18 21 - - - - - - - 21.9 1015.2 -
09/04:00pm SSE 19 22 - - - - - - - 21.8 1014.9 -
09/03:30pm SSE 18 23 - - - - - - - 21.9 1014.8 -
09/03:00pm SSE 18 23 - - - - - - - 21.8 1014.7 -
09/02:30pm SSE 19 23 - - - - - - - 21.8 1014.8 -
09/02:00pm SSE 19 23 - - - - - - - 21.8 1015.1 -
09/01:30pm SSE 18 22 - - - - - - - 21.8 1015.3 -
09/01:00pm SSE 18 22 - - - - - - - 21.8 1015.7 -
09/12:30pm SSE 18 22 - - - - - - - 21.9 1015.9 -
09/12:00pm SSE 18 22 - - - - - - - 21.6 1016.3 -
09/11:30am SSE 18 22 - - - - - - - 21.5 1016.7 -
09/11:00am SSE 20 24 - - - - - - - 21.3 1017.1 -
09/10:30am SSE 19 23 - - - - - - - 21.3 1017.4 -
09/10:00am SSE 20 23 - - - - - - - 21.4 1017.6 -
09/09:30am SSE 19 25 - - - - - - - 21.2 1017.8 -
09/09:00am SSE 18 23 - - - - - - - 21.0 1017.9 -
09/08:30am SSE 19 24 - - - - - - - 20.8 1017.7 -
09/08:00am SSE 18 23 - - - - - - - 20.6 1017.6 -
09/07:30am SSE 16 21 - - - - - - - 20.4 1017.5 -
09/07:00am SSE 17 22 - - - - - - - 20.2 1017.4 -
09/06:30am S 17 21 - - - - - - - 20.2 1017.1 -
09/06:00am SSE 17 21 - - - - - - - 20.2 1016.9 -
09/05:30am SSE 16 21 - - - - - - - 20.0 1016.8 -
09/05:00am S 18 23 - - - - - - - 20.2 1016.5 -
09/04:30am SSE 15 19 - - - - - - - 20.3 1016.3 -
09/04:00am S 18 22 - - - - - - - 20.4 1016.3 -
09/03:30am SSE 17 21 - - - - - - - 20.6 1016.3 -
09/03:00am SSE 16 22 - - - - - - - 20.8 1016.3 -
09/02:30am S 17 19 - - - - - - - 20.8 1016.7 -
09/02:00am S 18 22 - - - - - - - 20.7 1016.8 -
09/01:30am SSE 16 21 - - - - - - - 20.9 1017.1 -
09/01:00am S 20 23 - - - - - - - 20.9 1017.2 -
09/12:30am SSE 19 22 - - - - - - - 21.2 1017.3 -
09/12:00am SSE 21 25 - - - - - - - 21.2 1017.5 -
 
Date/Time
EST
Wind Sea
Height
m
Swell Vis
km
Cloud Weather Temp
°C
Press
MSL
hPa
Rain since
9am
mm
Dir  Spd
kts
Gust
kts
Height
m
Period
s
Dir
08/11:30pm SSE 20 24 - - - - - - - 21.3 1017.6 -
08/11:00pm SSE 19 24 - - - - - - - 21.3 1017.7 -
08/10:30pm SSE 20 25 - - - - - - - 21.5 1017.7 -
08/10:00pm SSE 21 25 - - - - - - - 21.4 1017.4 -
08/09:30pm SSE 20 24 - - - - - - - 21.7 1017.5 -
08/09:00pm SSE 20 25 - - - - - - - 21.8 1017.4 -
08/08:30pm SSE 19 23 - - - - - - - 22.0 1017.3 -
08/08:00pm SSE 20 23 - - - - - - - 21.9 1017.1 -
08/07:30pm SSE 20 24 - - - - - - - 21.8 1016.9 -
08/07:00pm S 21 25 - - - - - - - 21.8 1016.4 -
08/06:30pm SSE 22 26 - - - - - - - 21.8 1015.9 -
08/06:00pm SSE 22 26 - - - - - - - 22.0 1015.6 -
08/05:30pm SSE 21 25 - - - - - - - 21.9 1015.3 -
08/05:00pm S 22 25 - - - - - - - 21.9 1014.8 -
08/04:30pm SSE 21 24 - - - - - - - 22.1 1014.9 -
08/04:00pm SSE 20 24 - - - - - - - 22.1 1014.6 -
08/03:30pm SSE 20 24 - - - - - - - 22.3 1014.2 -
08/03:00pm SSE 20 25 - - - - - - - 22.2 1014.2 -
08/02:30pm SSE 20 23 - - - - - - - 22.2 1014.2 -
08/02:00pm SSE 20 23 - - - - - - - 22.0 1014.5 -
08/01:30pm SSE 19 23 - - - - - - - 22.3 1014.8 -
08/01:00pm SSE 21 25 - - - - - - - 22.4 1015.0 -
08/12:30pm SSE 21 23 - - - - - - - 22.9 1015.4 -
08/12:00pm SSE 21 25 - - - - - - - 22.6 1015.6 -
08/11:30am SSE 21 25 - - - - - - - 22.5 1016.0 -
08/11:00am SSE 21 25 - - - - - - - 22.6 1016.4 -
08/10:30am SSE 22 25 - - - - - - - 22.6 1016.6 -
08/10:00am SSE 22 25 - - - - - - - 22.8 1016.7 -
08/09:30am SSE 21 25 - - - - - - - 22.9 1016.8 -
08/09:00am SSE 22 25 - - - - - - - 22.8 1016.9 -
08/08:30am SSE 22 25 - - - - - - - 22.7 1016.8 -
08/08:00am SSE 23 25 - - - - - - - 22.7 1016.4 -
08/07:30am SSE 22 25 - - - - - - - 22.9 1016.0 -
08/07:00am SE 20 24 - - - - - - - 22.8 1015.7 -
08/06:30am SE 20 22 - - - - - - - 22.9 1015.5 -
08/06:00am SE 18 22 - - - - - - - 23.1 1015.2 -
08/05:30am SE 18 20 - - - - - - - 23.1 1014.9 -
08/05:00am SSE 17 19 - - - - - - - 23.1 1014.5 -
08/04:30am SSE 18 20 - - - - - - - 22.9 1014.3 -
08/04:00am SSE 18 21 - - - - - - - 23.0 1014.2 -
08/03:30am SSE 19 22 - - - - - - - 23.2 1014.1 -
08/03:00am SSE 19 22 - - - - - - - 23.2 1014.1 -
08/02:30am SSE 15 17 - - - - - - - 23.3 1014.2 -
08/02:00am SSE 15 17 - - - - - - - 23.1 1014.4 -
08/01:30am SSE 15 18 - - - - - - - 23.1 1014.6 -
08/01:00am SSE 15 16 - - - - - - - 23.2 1015.0 -

Other formats

Comma delimited format used in spreadsheet applications
http://www.bom.gov.au/fwo/IDQ60701/IDQ60701.94298.axf

JavaScript Object Notation format (JSON) in row-major order
http://www.bom.gov.au/fwo/IDQ60701/IDQ60701.94298.json

Data quality

Most of these data are generated automatically and are frequently updated. Quality checks on data are not normally performed. It is possible for incorrect values to appear. Refer to information at About Latest Weather Observations and please check the disclaimer before using these data.